Location: Augsburg
(48.3836°N, 10.8929°E)
Time: 00:13:11
(UTC+01:00)

ISS - Pass Details

Date: 03 December 2021
Orbit: 413 x 422 km, 51.6° (Epoch: 24 January)

Event Time Altitude Azimuth Distance (km) Brightness Sun altitude
Rises 17:01:00 0° 285° (WNW) 2,387 0.9 -6.3°
Reaches altitude 10° 17:03:10 10° 291° (WNW) 1,519 -0.3 -6.6°
Maximum altitude 17:06:30 51° 9° (N) 545 -3.4 -7.1°
Drops below altitude 10° 17:09:49 10° 86° (E) 1,511 -1.5 -7.6°
Enters shadow 17:10:06 - 87° (E) 1,623 -1.4 -7.6°
